星链-1633 (STARLINK-1633 )

导读 | 星芒AI

STARLINK-1633 是 SpaceX Starlink 项目中的一颗低轨通信卫星,属于第 16 批部署的星链卫星群。该卫星于 2022 年发射,运行在约 550 公里的轨道高度,旨在为全球用户提供高速互联网服务。作为星链网络的一部分,STARLINK-1633 采用先进通信技术,支持宽带接入,尤其服务于传统网络难以覆盖的偏远地区。其设计注重可持续性,具备自动避撞功能,以减少太空碎片风险。

基本信息
目录编号:
46171
目录名称:
STARLINK-1633
国际标识:
2020-057BG
轨道中心:
EARTH
卫星名称:
星链-1633
卫星全名:
星链-1633 (STARLINK-1633 )
卫星状态:
在轨 (已飞行1946 天)
发射日期:
2020-08-18 UTC
国别 :
美国 (US)
星等 :
--
轨道信息
数据来源 国际轨道数据
星历时间: 2025-12-16T08:00:03+0800
8小时前
查看轨道信息
半长轴: 6820.589km
偏心率: 0.0013502
轨道倾角: 53.051°
近地点辐角 62.337°
升交点赤经 300.255°
平近点角 122.893°
近地点: 433.244km
远地点: 451.664km
周期: 93.431分钟
每日圈数: 15.41239
详细信息
固有亮度:
5
最大亮度:
2.5
卫星平台:
Starlink V1.0
覆盖范围:
全球
运营商:
太空探索技术公司
运营商所在国:
美国
制造商(研发单位):
太空探索技术公司
制造商所在国:
美国
使用方式:
暂无
卫星简介
星链(Starlink)计划是由太空探索技术公司(SpaceX)提出的一个巨型低轨卫星互联网星座项目,计划在2019年至2024年间在太空搭建由约1.2万颗卫星组成的“星链”网络,其中1584颗将部署在地球上空550千米处的近地轨道,并从2020年开始工作。该卫星仍在工作。
2D轨道图
3D轨道图
轨道高度分析图
轨道倾角分析图
轨道综合分析图
查看轨道综合分析图